SFY29W EGBB-LSGG

Flight info

Callsign SFY29W
Flight time N/A
Altitude 35000
Route ADMEX Y321 EMKUK UL612 VEULE DCT PEKIM DCT PILUL DCT PIMUP DCT PIXIS DCT PIBAT DCT LUSAR
Aircraft B38M/M-SDE1FGHILORVWXY/HB1

Departure

Time 2026-04-29 09:31
Airport Birmingham Airport (EGBB)

Arrival

Time N/A
Airport Geneva International Airport (LSGG)
Time Latitude Longitude Altitude Speed Heading
2026-04-29 08:57 52.45390 -1.73595 326 ft 0 kts 146°
2026-04-29 09:15 52.45393 -1.73598 326 ft 3 kts 146°
2026-04-29 09:15 52.45410 -1.73618 324 ft 4 kts 148°
2026-04-29 09:15 52.45435 -1.73634 324 ft 4 kts 175°
2026-04-29 09:15 52.45457 -1.73625 323 ft 4 kts 223°
2026-04-29 09:16 52.45459 -1.73626 323 ft 4 kts 236°
2026-04-29 09:16 52.45453 -1.73641 324 ft 0 kts 236°
2026-04-29 09:20 52.45447 -1.73653 322 ft 5 kts 236°
2026-04-29 09:20 52.45405 -1.73755 326 ft 16 kts 236°
2026-04-29 09:20 52.45334 -1.73926 326 ft 20 kts 234°
2026-04-29 09:20 52.45234 -1.73922 326 ft 16 kts 147°
2026-04-29 09:21 52.45132 -1.73811 325 ft 19 kts 146°
2026-04-29 09:21 52.45043 -1.73742 324 ft 11 kts 162°
2026-04-29 09:21 52.44971 -1.73675 326 ft 13 kts 144°
2026-04-29 09:21 52.44902 -1.73628 326 ft 7 kts 201°
2026-04-29 09:22 52.44847 -1.73667 325 ft 12 kts 198°
2026-04-29 09:22 52.44736 -1.73725 324 ft 20 kts 187°
2026-04-29 09:22 52.44612 -1.73618 326 ft 22 kts 142°
2026-04-29 09:22 52.44485 -1.73469 324 ft 23 kts 148°
2026-04-29 09:23 52.44377 -1.73423 323 ft 8 kts 218°
2026-04-29 09:23 52.44370 -1.73436 325 ft 0 kts 230°
2026-04-29 09:23 52.44366 -1.73445 323 ft 3 kts 230°
2026-04-29 09:23 52.44347 -1.73485 326 ft 6 kts 234°
2026-04-29 09:24 52.44319 -1.73572 326 ft 13 kts 261°
2026-04-29 09:24 52.44333 -1.73630 324 ft 5 kts 315°
2026-04-29 09:24 52.44364 -1.73667 326 ft 9 kts 324°
2026-04-29 09:24 52.44487 -1.73805 327 ft 49 kts 327°
2026-04-29 09:25 52.44942 -1.74308 327 ft 57 kts 327°
2026-04-29 09:25 52.45155 -1.74544 328 ft 36 kts 328°
2026-04-29 09:25 52.45351 -1.74757 325 ft 32 kts 327°
2026-04-29 09:25 52.45403 -1.74755 325 ft 6 kts 53°
2026-04-29 09:26 52.45448 -1.74639 324 ft 15 kts 58°
2026-04-29 09:26 52.45468 -1.74587 325 ft 0 kts 60°
2026-04-29 09:27 52.45468 -1.74581 325 ft 3 kts 76°
2026-04-29 09:27 52.45447 -1.74483 325 ft 15 kts 117°
2026-04-29 09:27 52.45396 -1.74312 324 ft 18 kts 121°
2026-04-29 09:27 52.45296 -1.74176 324 ft 20 kts 146°
2026-04-29 09:28 52.45176 -1.74039 325 ft 22 kts 144°
2026-04-29 09:28 52.45043 -1.73895 324 ft 24 kts 147°
2026-04-29 09:28 52.44901 -1.73738 326 ft 26 kts 145°
2026-04-29 09:28 52.44752 -1.73722 323 ft 23 kts 195°
2026-04-29 09:29 52.44609 -1.73614 326 ft 24 kts 146°
2026-04-29 09:29 52.44354 -1.73471 326 ft 16 kts 233°
2026-04-29 09:29 52.44334 -1.73626 324 ft 15 kts 310°
2026-04-29 09:30 52.44367 -1.73670 326 ft 2 kts 324°
2026-04-29 09:30 52.44436 -1.73748 327 ft 32 kts 326°
2026-04-29 09:30 52.44846 -1.74202 330 ft 109 kts 326°
2026-04-29 09:30 52.45619 -1.75033 329 ft 142 kts 337°
2026-04-29 09:31 52.46452 -1.75893 336 ft 164 kts 332°
2026-04-29 09:31 52.47498 -1.77022 1008 ft 189 kts 332°
2026-04-29 09:31 52.48613 -1.78277 2255 ft 195 kts 333°
2026-04-29 09:31 52.49788 -1.79329 3131 ft 195 kts 358°
2026-04-29 09:32 52.51027 -1.79182 4051 ft 164 kts 26°
2026-04-29 09:32 52.52153 -1.78803 4901 ft 169 kts 23°
2026-04-29 09:32 52.53162 -1.77909 5428 ft 164 kts 57°
2026-04-29 09:32 52.53622 -1.76281 6129 ft 161 kts 83°
2026-04-29 09:33 52.53606 -1.74378 6724 ft 175 kts 97°
2026-04-29 09:33 52.53430 -1.72313 7266 ft 192 kts 98°
2026-04-29 09:33 52.53208 -1.70082 7944 ft 202 kts 99°
2026-04-29 09:33 52.52903 -1.67813 8726 ft 206 kts 112°
2026-04-29 09:34 52.52025 -1.65935 9541 ft 213 kts 131°
2026-04-29 09:34 52.50969 -1.64156 10220 ft 224 kts 130°
2026-04-29 09:34 52.49843 -1.62262 10743 ft 241 kts 131°
2026-04-29 09:34 52.48620 -1.60232 11229 ft 259 kts 131°
2026-04-29 09:35 52.47343 -1.58135 11946 ft 267 kts 131°
2026-04-29 09:35 52.45829 -1.56210 12453 ft 291 kts 151°
2026-04-29 09:35 52.43837 -1.55121 12969 ft 310 kts 155°
2026-04-29 09:35 52.41781 -1.53835 13578 ft 322 kts 154°
2026-04-29 09:36 52.39655 -1.52516 14340 ft 328 kts 154°
2026-04-29 09:36 52.37512 -1.51209 15216 ft 330 kts 154°
2026-04-29 09:36 52.35345 -1.49901 16022 ft 334 kts 154°
2026-04-29 09:36 52.33151 -1.48582 16838 ft 338 kts 154°
2026-04-29 09:37 52.30935 -1.47255 17670 ft 341 kts 154°
2026-04-29 09:37 52.28700 -1.45919 18464 ft 343 kts 154°
2026-04-29 09:37 52.26460 -1.44583 19230 ft 345 kts 154°
2026-04-29 09:37 52.24211 -1.43242 19796 ft 351 kts 154°
2026-04-29 09:38 52.21917 -1.41876 20520 ft 352 kts 154°
2026-04-29 09:38 52.19606 -1.40501 21151 ft 355 kts 154°
2026-04-29 09:38 52.17276 -1.39117 21823 ft 357 kts 154°
2026-04-29 09:38 52.14933 -1.37726 22478 ft 360 kts 154°
2026-04-29 09:39 52.12572 -1.36326 23123 ft 363 kts 154°
2026-04-29 09:39 52.10196 -1.34920 23622 ft 366 kts 154°
2026-04-29 09:39 52.07813 -1.33511 23231 ft 361 kts 154°
2026-04-29 09:39 52.05473 -1.32128 23325 ft 361 kts 154°
2026-04-29 09:40 52.03102 -1.30723 23236 ft 378 kts 153°
2026-04-29 09:40 52.00762 -1.28655 23280 ft 385 kts 141°
2026-04-29 09:40 51.98494 -1.26373 24107 ft 382 kts 144°
2026-04-29 09:40 51.96229 -1.24202 24904 ft 376 kts 144°
2026-04-29 09:41 51.94005 -1.22100 25742 ft 369 kts 144°
2026-04-29 09:41 51.91784 -1.20019 26412 ft 367 kts 144°
2026-04-29 09:41 51.89552 -1.17939 26798 ft 373 kts 144°
2026-04-29 09:41 51.87307 -1.15854 27389 ft 372 kts 144°
2026-04-29 09:42 51.85069 -1.13779 28041 ft 369 kts 143°
2026-04-29 09:42 51.82847 -1.11721 28682 ft 367 kts 143°
2026-04-29 09:42 51.80634 -1.09674 29275 ft 366 kts 143°
2026-04-29 09:42 51.78427 -1.07635 29885 ft 364 kts 143°
2026-04-29 09:43 51.76233 -1.05611 30461 ft 362 kts 143°
2026-04-29 09:43 51.74078 -1.03625 30926 ft 361 kts 143°
2026-04-29 09:43 51.71897 -1.01618 31350 ft 361 kts 143°
2026-04-29 09:43 51.69711 -0.99608 31768 ft 361 kts 143°
2026-04-29 09:44 51.67532 -0.97606 32188 ft 361 kts 143°
2026-04-29 09:44 51.65350 -0.95604 32579 ft 361 kts 143°
2026-04-29 09:44 51.63170 -0.93605 32983 ft 361 kts 143°
2026-04-29 09:44 51.60993 -0.91613 33379 ft 361 kts 143°
2026-04-29 09:45 51.58813 -0.89619 33769 ft 361 kts 143°
2026-04-29 09:45 51.57941 -0.88822 33912 ft 361 kts 143°